Georgetown, SC

3:21 AM EDT on July 25, 2016 (GMT -0400)
Georgetown County

Weather History for KGGE - December, 2011

Change the Weather History Date:

Saturday, December 3, 2011

  Actual Average Record
Temperature  
Mean Temperature 47 °F -  
Max Temperature 62 °F 65 °F 73 °F (2012)
Min Temperature 32 °F 39 °F 26 °F (2010)
Degree Days  
Heating Degree Days 18    
Moisture  
Dew Point 39 °F    
Average Humidity 77    
Maximum Humidity 100    
Minimum Humidity 51    
Precipitation  
Precipitation 0.00 in - - ()
Sea Level Pressure  
Sea Level Pressure 30.50 in    
Wind  
Wind Speed 3 mph (NE)    
Max Wind Speed 12 mph    
Max Gust Speed 17 mph    
Visibility 10 miles    
Events      
Averages and records for this station are not official NWS values.
T = Trace of Precipitation, MM = Missing Value Source: NWS Daily Summary

Daily Weather History Graph

Daily Weather History Graph

Search for Another Location

Airport or City:

Trip Planner

Search our weather history database for the weather conditions in past years. The results will help you decide how hot, cold, wet, or windy it might be!

Date:

Astronomy

Dec. 03, 2011 Rise Set
Actual Time 7:04 AM EST 5:09 PM EST
Civil Twilight 6:37 AM EST 5:36 PM EST
Nautical Twilight 6:06 AM EST 6:07 PM EST
Astronomical Twilight 5:36 AM EST 6:37 PM EST
Moon 12:58 PM EST (12/3) 12:47 AM EST (12/3)
Length of Visible Light 10h 59m
Length of Day
10h 05m
Waxing Gibbous, 62% of the Moon is Illuminated
Dec 3
Waxing Gibbous
Dec 10
Full
Dec 17
Last Quarter
Dec 24
New
Jan 1
First Quarter

Hourly Weather History & Observations

Time (EST) Temp. Windchill Dew Point Humidity Pressure Visibility Wind Dir Wind Speed Gust Speed Precip Events Conditions
12:15 AM 32.0 °F - 30.2 °F 93% 30.46 in 10.0 mi Calm Calm - N/A   Clear
12:35 AM 32.0 °F - 30.2 °F 93% 30.46 in 10.0 mi Calm Calm - N/A   Clear
12:55 AM 32.0 °F - 30.2 °F 93% 30.47 in 10.0 mi Calm Calm - N/A   Clear
1:15 AM 32.0 °F - 30.2 °F 93% 30.46 in 10.0 mi Calm Calm - N/A   Clear
1:35 AM 32.0 °F - 30.2 °F 93% 30.47 in 10.0 mi Calm Calm - N/A   Clear
2:15 AM 32.0 °F - 30.2 °F 93% 30.48 in 10.0 mi Calm Calm - N/A   Clear
2:35 AM 32.0 °F - 30.2 °F 93% 30.47 in 10.0 mi Calm Calm - N/A   Clear
2:55 AM 32.0 °F - 30.2 °F 93% 30.47 in 10.0 mi Calm Calm - N/A   Clear
3:15 AM 32.0 °F - 30.2 °F 93% 30.47 in 10.0 mi Calm Calm - N/A   Clear
3:35 AM 32.0 °F - 30.2 °F 93% 30.47 in 10.0 mi Calm Calm - N/A   Clear
3:55 AM 32.0 °F - 30.2 °F 93% 30.47 in 10.0 mi Calm Calm - N/A   Clear
4:15 AM 32.0 °F - 30.2 °F 93% 30.47 in 10.0 mi Calm Calm - N/A   Clear
4:35 AM 32.0 °F - 30.2 °F 93% 30.47 in 10.0 mi Calm Calm - N/A   Clear
5:15 AM 32.0 °F - 30.2 °F 93% 30.48 in 10.0 mi Calm Calm - N/A   Clear
5:35 AM 32.0 °F - 30.2 °F 93% 30.49 in 10.0 mi Calm Calm - N/A   Clear
5:55 AM 32.0 °F - 30.2 °F 93% 30.49 in 10.0 mi Calm Calm - N/A   Clear
6:15 AM 32.0 °F - 30.2 °F 93% 30.49 in 10.0 mi Calm Calm - N/A   Clear
6:35 AM 32.0 °F - 30.2 °F 93% 30.49 in 10.0 mi Calm Calm - N/A   Clear
7:15 AM 32.0 °F - 28.4 °F 87% 30.50 in 10.0 mi Calm Calm - N/A   Clear
7:35 AM 32.0 °F - 30.2 °F 93% 30.51 in 10.0 mi Calm Calm - N/A   Clear
7:55 AM 32.0 °F - 32.0 °F 100% 30.51 in 10.0 mi Calm Calm - N/A   Clear
8:15 AM 35.6 °F - 33.8 °F 93% 30.52 in 10.0 mi Calm Calm - N/A   Clear
8:35 AM 44.6 °F 40.7 °F 37.4 °F 76% 30.52 in 10.0 mi NNE 6.9 mph - N/A   Clear
8:55 AM 46.4 °F 42.9 °F 37.4 °F 71% 30.52 in 10.0 mi NNE 6.9 mph - N/A   Clear
9:15 AM 48.2 °F - 37.4 °F 66% 30.53 in 10.0 mi NE 6.9 mph - N/A   Clear
9:35 AM 50.0 °F - 37.4 °F 62% 30.54 in 10.0 mi NE 5.8 mph - N/A   Clear
9:55 AM 53.6 °F - 41.0 °F 62% 30.54 in 10.0 mi NE 8.1 mph - N/A   Clear
10:15 AM 55.4 °F - 41.0 °F 58% 30.54 in 10.0 mi NE 6.9 mph - N/A   Clear
10:35 AM 59.0 °F - 42.8 °F 55% 30.54 in 10.0 mi NE 8.1 mph - N/A   Clear
10:55 AM 59.0 °F - 41.0 °F 51% 30.54 in 10.0 mi NE 10.4 mph - N/A   Clear
11:15 AM 59.0 °F - 42.8 °F 55% 30.54 in 10.0 mi NE 9.2 mph 17.3 mph N/A   Clear
11:35 AM 60.8 °F - 42.8 °F 52% 30.54 in 10.0 mi NE 9.2 mph - N/A   Clear
12:15 PM 60.8 °F - 42.8 °F 52% 30.52 in 10.0 mi NE 11.5 mph - N/A   Clear
12:35 PM 60.8 °F - 44.6 °F 55% 30.52 in 10.0 mi NE 11.5 mph - N/A   Clear
12:55 PM 62.6 °F - 44.6 °F 52% 30.51 in 10.0 mi ENE 11.5 mph - N/A   Clear
1:15 PM 62.6 °F - 44.6 °F 52% 30.51 in 10.0 mi ENE 10.4 mph - N/A   Clear
1:35 PM 62.6 °F - 46.4 °F 55% 30.50 in 10.0 mi NE 8.1 mph - N/A   Clear
1:55 PM 60.8 °F - 46.4 °F 59% 30.50 in 10.0 mi ENE 11.5 mph - N/A   Clear
2:15 PM 60.8 °F - 46.4 °F 59% 30.50 in 10.0 mi NE 9.2 mph - N/A   Clear
2:35 PM 60.8 °F - 48.2 °F 63% 30.50 in 10.0 mi ENE 8.1 mph - N/A   Clear
2:55 PM 60.8 °F - 48.2 °F 63% 30.50 in 10.0 mi NE 8.1 mph - N/A   Clear
3:15 PM 60.8 °F - 48.2 °F 63% 30.50 in 10.0 mi ENE 6.9 mph - N/A   Clear
3:35 PM 60.8 °F - 46.4 °F 59% 30.50 in 10.0 mi NE 6.9 mph - N/A   Clear
3:55 PM 60.8 °F - 48.2 °F 63% 30.50 in 10.0 mi ENE 8.1 mph - N/A   Clear
4:15 PM 59.0 °F - 46.4 °F 63% 30.50 in 10.0 mi ENE 5.8 mph - N/A   Clear
4:35 PM 59.0 °F - 48.2 °F 67% 30.50 in 10.0 mi East 4.6 mph - N/A   Clear
4:55 PM 59.0 °F - 48.2 °F 67% 30.50 in 10.0 mi East 4.6 mph - N/A   Clear
5:15 PM 55.4 °F - 48.2 °F 77% 30.51 in 10.0 mi East 3.5 mph - N/A   Clear
5:35 PM 55.4 °F - 48.2 °F 77% 30.51 in 10.0 mi NE 3.5 mph - N/A   Mostly Cloudy
5:55 PM 53.6 °F - 48.2 °F 82% 30.51 in 10.0 mi NE 3.5 mph - N/A   Mostly Cloudy
6:55 PM 50.0 °F - 46.4 °F 87% 30.51 in 10.0 mi Calm Calm - N/A   Scattered Clouds
8:15 PM 50.0 °F - 46.4 °F 87% 30.51 in 10.0 mi NE 5.8 mph - N/A   Mostly Cloudy
8:35 PM 50.0 °F - 46.4 °F 87% 30.51 in 10.0 mi ENE 4.6 mph - N/A   Mostly Cloudy
8:55 PM 50.0 °F - 44.6 °F 82% 30.50 in 10.0 mi ENE 4.6 mph - N/A   Scattered Clouds
9:35 PM 51.8 °F - 46.4 °F 82% 30.50 in 10.0 mi NE 4.6 mph - N/A   Overcast
9:55 PM 50.0 °F - 44.6 °F 82% 30.50 in 10.0 mi ENE 3.5 mph - N/A   Mostly Cloudy
10:15 PM 50.0 °F - 44.6 °F 82% 30.49 in 10.0 mi NNE 4.6 mph - N/A   Mostly Cloudy
10:35 PM 51.8 °F - 46.4 °F 82% 30.49 in 10.0 mi NE 3.5 mph - N/A   Overcast
11:15 PM 51.8 °F - 46.4 °F 82% 30.50 in 10.0 mi NNE 5.8 mph - N/A   Overcast
11:35 PM 51.8 °F - 46.4 °F 82% 30.49 in 10.0 mi NNE 6.9 mph - N/A   Overcast
11:55 PM 50.0 °F - 46.4 °F 87% 30.48 in 10.0 mi NNE 6.9 mph - N/A   Overcast